Location: Valasske Mezirici
(49.4670°N, 17.9670°E)
Time: 22:58:04
(UTC+01:00)

ISS - Visible Passes

Search period start: 24 March 2019 00:00
Search period end: 03 April 2019 01:00
Orbit: 408 x 411 km, 51.6° (Epoch: 24 March)

Date Brightness Start Highest point End Pass type
(mag) Time Alt. Az. Time Alt. Az. Time Alt. Az.
24 Mar -3.8 19:32:42 10° SW 19:35:57 59° SSE 19:37:09 34° E visible
24 Mar -0.8 21:09:19 10° W 21:09:56 15° W 21:09:56 15° W visible
25 Mar -3.2 18:42:16 10° SW 18:45:22 39° SSE 18:48:29 10° E visible
25 Mar -3.5 20:18:35 10° W 20:21:38 64° NW 20:21:38 64° NW visible
26 Mar -3.8 19:27:52 10° WSW 19:31:11 84° NNW 19:33:13 22° ENE visible
26 Mar -1.3 21:04:40 10° WNW 21:05:59 21° WNW 21:05:59 21° WNW visible
27 Mar -3.8 18:37:13 10° WSW 18:40:31 72° SSE 18:43:48 10° ENE visible
27 Mar -3.4 20:13:56 10° W 20:17:12 57° N 20:17:27 55° NNE visible
28 Mar -3.4 19:23:09 10° W 19:26:27 62° N 19:28:52 17° ENE visible
28 Mar -1.7 20:59:57 10° WNW 21:01:37 27° WNW 21:01:37 27° WNW visible
29 Mar -3.5 20:09:13 10° WNW 20:12:29 59° N 20:12:58 52° NE visible
30 Mar -3.3 19:18:26 10° W 19:21:42 56° N 19:24:16 15° ENE visible
30 Mar -2.0 20:55:08 10° WNW 20:57:01 31° WNW 20:57:01 31° WNW visible
31 Mar -3.8 21:04:23 10° WNW 21:07:42 75° NNE 21:08:18 55° E visible
01 Apr -3.5 20:13:38 10° WNW 20:16:56 63° N 20:19:35 15° E visible
01 Apr -2.2 21:50:17 10° WNW 21:52:20 31° W 21:52:20 31° W visible
02 Apr -3.8 20:59:29 10° WNW 21:02:47 71° SSW 21:03:36 46° SE visible
